| time (UTC) | temp F | wind direction | speed MPH | gust MPH | rain 1hr in | rain 24hr in | rain mn in | humidity % | barometer mb |
| 20260504130803 | 48 | 23 | 0.0 | 0.0 | 0.00 | 0.00 | 0.00 | 94 | 1019.0 |
| 20260504130259 | 47 | 23 | 0.0 | 0.0 | 0.00 | 0.00 | 0.00 | 94 | 1019.0 |
| 20260504120224 | 43 | 23 | 0.0 | 0.0 | 0.00 | 0.00 | 0.00 | 93 | 1019.1 |
| 20260504110503 | 42 | 249 | 0.0 | 0.0 | 0.00 | 0.00 | 0.00 | 92 | 1018.7 |
| 20260504100336 | 42 | 249 | 0.0 | 0.0 | 0.00 | 0.00 | 0.00 | 91 | 1018.4 |
| 20260504082001 | 44 | 249 | 0.0 | 0.0 | 0.00 | 0.00 | 0.00 | 90 | 1018.2 |
| 20260504080155 | 44 | 249 | 0.0 | 0.0 | 0.00 | 0.00 | 0.00 | 90 | 1018.1 |
| 20260504060221 | 46 | 249 | 0.0 | 0.0 | 0.00 | 0.00 | 0.00 | 88 | 1019.1 |
| 20260504050419 | 47 | 249 | 0.0 | 0.0 | 0.00 | 0.00 | 0.00 | 85 | 1018.8 |
| 20260504045304 | 48 | 249 | 0.0 | 0.0 | 0.00 | 0.00 | 0.00 | 84 | 1018.9 |
| 20260504044805 | 48 | 249 | 0.0 | 0.0 | 0.00 | 0.00 | 0.00 | 84 | 1018.9 |
| 20260504044313 | 48 | 249 | 0.0 | 0.0 | 0.00 | 0.00 | 0.00 | 83 | 1018.9 |
| 20260504043146 | 48 | 249 | 0.0 | 0.0 | 0.00 | 0.00 | 0.00 | 84 | 1019.0 |
| 20260504042638 | 48 | 249 | 0.0 | 0.0 | 0.00 | 0.00 | 0.00 | 84 | 1019.2 |
| 20260504042120 | 48 | 249 | 0.0 | 0.0 | 0.00 | 0.00 | 0.00 | 84 | 1019.4 |
| 20260504041612 | 48 | 249 | 0.0 | 0.0 | 0.00 | 0.00 | 0.00 | 84 | 1019.5 |
| 20260504041104 | 48 | 249 | 0.0 | 0.0 | 0.00 | 0.00 | 0.00 | 83 | 1019.4 |
| 20260504040554 | 48 | 249 | 0.0 | 0.0 | 0.00 | 0.00 | 0.00 | 83 | 1019.3 |
| 20260504040057 | 49 | 249 | 0.0 | 0.0 | 0.00 | 0.00 | 0.00 | 83 | 1019.3 |
| 20260504034927 | 49 | 249 | 0.0 | 0.0 | 0.00 | 0.00 | 0.00 | 82 | 1019.3 |
| 20260504034434 | 49 | 249 | 0.0 | 0.0 | 0.00 | 0.00 | 0.00 | 82 | 1019.3 |
| 20260504033941 | 49 | 249 | 0.0 | 0.0 | 0.00 | 0.00 | 0.00 | 82 | 1019.4 |
| 20260504033442 | 49 | 249 | 0.0 | 0.0 | 0.00 | 0.00 | 0.00 | 81 | 1019.4 |
| 20260504032947 | 50 | 249 | 0.0 | 0.0 | 0.00 | 0.00 | 0.00 | 81 | 1019.3 |
| 20260504032436 | 50 | 249 | 0.0 | 0.0 | 0.00 | 0.00 | 0.00 | 80 | 1019.2 |
| 20260504031323 | 51 | 249 | 0.0 | 0.0 | 0.00 | 0.00 | 0.00 | 79 | 1019.1 |
| 20260504030205 | 51 | 249 | 0.0 | 0.0 | 0.00 | 0.00 | 0.00 | 78 | 1019.1 |
| 20260504025654 | 52 | 249 | 0.0 | 0.0 | 0.00 | 0.00 | 0.00 | 77 | 1019.1 |
| 20260504025144 | 52 | 249 | 0.0 | 0.0 | 0.00 | 0.00 | 0.00 | 74 | 1019.2 |
| 20260504024627 | 52 | 249 | 0.0 | 0.0 | 0.00 | 0.00 | 0.00 | 75 | 1019.2 |
| 20260504024133 | 52 | 249 | 0.0 | 0.0 | 0.00 | 0.00 | 0.00 | 72 | 1019.2 |
| 20260504023641 | 53 | 249 | 0.0 | 0.0 | 0.00 | 0.00 | 0.00 | 73 | 1019.2 |
| 20260504023141 | 53 | 249 | 0.0 | 0.0 | 0.00 | 0.00 | 0.00 | 73 | 1019.0 |
| 20260504022638 | 53 | 249 | 0.0 | 0.0 | 0.00 | 0.00 | 0.00 | 71 | 1019.0 |
| 20260504022143 | 54 | 249 | 0.0 | 0.0 | 0.00 | 0.00 | 0.00 | 69 | 1019.0 |
| 20260504021629 | 54 | 249 | 0.0 | 0.0 | 0.00 | 0.00 | 0.00 | 67 | 1019.0 |
| 20260504015916 | 55 | 249 | 0.0 | 0.0 | 0.00 | 0.00 | 0.00 | 67 | 1018.9 |
| 20260504015408 | 55 | 249 | 0.0 | 0.0 | 0.00 | 0.00 | 0.00 | 65 | 1018.8 |
| 20260504014230 | 56 | 249 | 0.0 | 0.0 | 0.00 | 0.00 | 0.00 | 66 | 1018.7 |
| 20260504013721 | 56 | 249 | 0.0 | 0.0 | 0.00 | 0.00 | 0.00 | 64 | 1018.6 |
| 20260504013230 | 57 | 249 | 0.0 | 0.0 | 0.00 | 0.00 | 0.00 | 63 | 1018.6 |
| 20260504012731 | 57 | 249 | 0.0 | 0.0 | 0.00 | 0.00 | 0.00 | 63 | 1018.4 |
| 20260504012239 | 58 | 249 | 0.0 | 0.0 | 0.00 | 0.00 | 0.00 | 62 | 1018.4 |
| 20260504011122 | 59 | 249 | 0.0 | 0.0 | 0.00 | 0.00 | 0.00 | 59 | 1018.3 |
| 20260504010614 | 59 | 249 | 0.0 | 0.0 | 0.00 | 0.00 | 0.00 | 59 | 1018.3 |
| 20260504005511 | 61 | 249 | 0.0 | 0.0 | 0.00 | 0.00 | 0.00 | 56 | 1018.3 |
| 20260504005021 | 61 | 249 | 0.0 | 0.0 | 0.00 | 0.00 | 0.00 | 57 | 1018.3 |
| 20260504004515 | 62 | 249 | 0.0 | 0.0 | 0.00 | 0.00 | 0.00 | 57 | 1018.3 |
| 20260504004021 | 63 | 249 | 0.0 | 0.0 | 0.00 | 0.00 | 0.00 | 54 | 1018.2 |
| 20260504003511 | 64 | 249 | 0.0 | 0.0 | 0.00 | 0.00 | 0.00 | 52 | 1018.2 |
| 20260504003003 | 64 | 249 | 0.0 | 0.0 | 0.00 | 0.00 | 0.00 | 52 | 1018.1 |
| 20260504002448 | 65 | 249 | 0.0 | 0.0 | 0.00 | 0.00 | 0.00 | 52 | 1018.1 |
| 20260504001334 | 66 | 274 | 0.0 | 3.0 | 0.00 | 0.00 | 0.00 | 46 | 1018.0 |
| 20260504000839 | 66 | 274 | 0.0 | 3.0 | 0.00 | 0.00 | 0.00 | 43 | 1018.0 |
| 20260504000337 | 67 | 274 | 0.0 | 3.0 | 0.00 | 0.00 | 0.00 | 44 | 1018.0 |
| 20260503235844 | 67 | 258 | 0.0 | 1.0 | 0.00 | 0.00 | 0.00 | 45 | 1018.0 |
| 20260503235344 | 67 | 258 | 0.0 | 2.0 | 0.00 | 0.00 | 0.00 | 42 | 1017.9 |
| 20260503234844 | 67 | 310 | 0.0 | 3.0 | 0.00 | 0.00 | 0.00 | 43 | 1017.9 |
| 20260503234339 | 67 | 228 | 1.0 | 3.0 | 0.00 | 0.00 | 0.00 | 43 | 1017.9 |
| 20260503233843 | 68 | 287 | 1.0 | 6.0 | 0.00 | 0.00 | 0.00 | 43 | 1017.9 |
| 20260503233327 | 68 | 285 | 1.0 | 6.0 | 0.00 | 0.00 | 0.00 | 45 | 1017.9 |
| 20260503232824 | 68 | 222 | 1.0 | 6.0 | 0.00 | 0.00 | 0.00 | 43 | 1017.9 |
| 20260503232311 | 68 | 199 | 1.0 | 6.0 | 0.00 | 0.00 | 0.00 | 43 | 1017.8 |
| 20260503231146 | 69 | 289 | 1.0 | 5.0 | 0.00 | 0.00 | 0.00 | 43 | 1018.0 |
| 20260503230643 | 69 | 226 | 2.0 | 5.0 | 0.00 | 0.00 | 0.00 | 41 | 1018.0 |
| 20260503222922 | 70 | 292 | 0.0 | 3.0 | 0.00 | 0.00 | 0.00 | 42 | 1018.2 |
| 20260503222430 | 69 | 210 | 0.0 | 7.0 | 0.00 | 0.00 | 0.00 | 42 | 1018.2 |
| 20260503221918 | 70 | 210 | 1.0 | 7.0 | 0.00 | 0.00 | 0.00 | 42 | 1018.2 |
| 20260503221422 | 70 | 222 | 1.0 | 7.0 | 0.00 | 0.00 | 0.00 | 40 | 1018.3 |
| 20260503220910 | 70 | 314 | 2.0 | 7.0 | 0.00 | 0.00 | 0.00 | 41 | 1018.3 |
| 20260503220414 | 70 | 299 | 1.0 | 6.0 | 0.00 | 0.00 | 0.00 | 41 | 1018.4 |
| 20260503215917 | 70 | 226 | 1.0 | 10.0 | 0.00 | 0.00 | 0.00 | 42 | 1018.3 |
| 20260503214130 | 71 | 209 | 1.0 | 6.0 | 0.00 | 0.00 | 0.00 | 41 | 1018.4 |
| 20260503213627 | 71 | 235 | 1.0 | 6.0 | 0.00 | 0.00 | 0.00 | 43 | 1018.5 |
| 20260503213121 | 71 | 296 | 0.0 | 6.0 | 0.00 | 0.00 | 0.00 | 43 | 1018.4 |
| 20260503212612 | 71 | 266 | 0.0 | 7.0 | 0.00 | 0.00 | 0.00 | 38 | 1018.5 |
| 20260503212109 | 71 | 179 | 1.0 | 7.0 | 0.00 | 0.00 | 0.00 | 40 | 1018.6 |
| 20260503211559 | 71 | 218 | 1.0 | 7.0 | 0.00 | 0.00 | 0.00 | 40 | 1018.5 |
| 20260503211047 | 70 | 251 | 1.0 | 7.0 | 0.00 | 0.00 | 0.00 | 41 | 1018.6 |
| 20260503210545 | 70 | 308 | 1.0 | 7.0 | 0.00 | 0.00 | 0.00 | 41 | 1018.7 |
| 20260503205359 | 70 | 268 | 1.0 | 6.0 | 0.00 | 0.00 | 0.00 | 40 | 1018.8 |
| 20260503204859 | 70 | 22 | 1.0 | 6.0 | 0.00 | 0.00 | 0.00 | 40 | 1018.8 |
| 20260503204353 | 71 | 337 | 1.0 | 6.0 | 0.00 | 0.00 | 0.00 | 45 | 1018.9 |
| 20260503203849 | 71 | 336 | 1.0 | 6.0 | 0.00 | 0.00 | 0.00 | 40 | 1019.0 |
| 20260503203330 | 70 | 253 | 2.0 | 6.0 | 0.00 | 0.00 | 0.00 | 41 | 1019.1 |
| 20260503202837 | 71 | 8 | 1.0 | 5.0 | 0.00 | 0.00 | 0.00 | 42 | 1019.2 |
| 20260503202332 | 70 | 233 | 0.0 | 7.0 | 0.00 | 0.00 | 0.00 | 42 | 1019.2 |
| 20260503201837 | 70 | 317 | 1.0 | 7.0 | 0.00 | 0.00 | 0.00 | 41 | 1019.3 |
| 20260503201326 | 70 | 297 | 2.0 | 7.0 | 0.00 | 0.00 | 0.00 | 38 | 1019.4 |
| 20260503200828 | 70 | 313 | 2.0 | 7.0 | 0.00 | 0.00 | 0.00 | 42 | 1019.6 |
| 20260503200329 | 70 | 219 | 1.0 | 6.0 | 0.00 | 0.00 | 0.00 | 39 | 1019.7 |
| 20260503195813 | 70 | 300 | 0.0 | 3.0 | 0.00 | 0.00 | 0.00 | 40 | 1019.6 |
| 20260503195304 | 70 | 276 | 1.0 | 3.0 | 0.00 | 0.00 | 0.00 | 40 | 1019.8 |
| 20260503194758 | 70 | 302 | 1.0 | 3.0 | 0.00 | 0.00 | 0.00 | 40 | 1019.9 |
| 20260503194258 | 70 | 318 | 1.0 | 5.0 | 0.00 | 0.00 | 0.00 | 43 | 1019.9 |
| 20260503193759 | 70 | 314 | 1.0 | 5.0 | 0.00 | 0.00 | 0.00 | 40 | 1020.0 |
| 20260503193247 | 70 | 321 | 1.0 | 5.0 | 0.00 | 0.00 | 0.00 | 42 | 1020.1 |
| 20260503192740 | 70 | 321 | 1.0 | 5.0 | 0.00 | 0.00 | 0.00 | 46 | 1020.3 |
| 20260503192226 | 70 | 197 | 1.0 | 4.0 | 0.00 | 0.00 | 0.00 | 39 | 1020.2 |
| 20260503191710 | 70 | 203 | 1.0 | 3.0 | 0.00 | 0.00 | 0.00 | 44 | 1020.4 |
| 20260503191202 | 69 | 305 | 1.0 | 3.0 | 0.00 | 0.00 | 0.00 | 42 | 1020.5 |
| 20260503190711 | 70 | 332 | 1.0 | 8.0 | 0.00 | 0.00 | 0.00 | 41 | 1020.5 |
| 20260503190200 | 69 | 239 | 1.0 | 8.0 | 0.00 | 0.00 | 0.00 | 40 | 1020.5 |
| 20260503185708 | 69 | 298 | 2.0 | 8.0 | 0.00 | 0.00 | 0.00 | 43 | 1020.6 |
| 20260503183342 | 68 | 330 | 1.0 | 4.0 | 0.00 | 0.00 | 0.00 | 42 | 1020.9 |
| 20260503182836 | 68 | 214 | 1.0 | 4.0 | 0.00 | 0.00 | 0.00 | 41 | 1020.9 |
| 20260503182339 | 68 | 15 | 1.0 | 3.0 | 0.00 | 0.00 | 0.00 | 41 | 1020.9 |
| 20260503181842 | 68 | 316 | 0.0 | 2.0 | 0.00 | 0.00 | 0.00 | 46 | 1021.0 |
| 20260503181338 | 68 | 309 | 0.0 | 2.0 | 0.00 | 0.00 | 0.00 | 46 | 1021.1 |
| 20260503180825 | 68 | 323 | 0.0 | 6.0 | 0.00 | 0.00 | 0.00 | 44 | 1021.1 |
| 20260503175103 | 67 | 205 | 0.0 | 8.0 | 0.00 | 0.00 | 0.00 | 42 | 1021.3 |
| 20260503174612 | 67 | 156 | 1.0 | 8.0 | 0.00 | 0.00 | 0.00 | 45 | 1021.3 |
| 20260503174107 | 67 | 295 | 2.0 | 8.0 | 0.00 | 0.00 | 0.00 | 44 | 1021.4 |
| 20260503173603 | 67 | 211 | 2.0 | 7.0 | 0.00 | 0.00 | 0.00 | 42 | 1021.5 |
| 20260503173105 | 67 | 39 | 2.0 | 7.0 | 0.00 | 0.00 | 0.00 | 40 | 1021.5 |
| 20260503172557 | 66 | 295 | 2.0 | 7.0 | 0.00 | 0.00 | 0.00 | 44 | 1021.5 |
| 20260503172056 | 66 | 200 | 1.0 | 7.0 | 0.00 | 0.00 | 0.00 | 48 | 1021.6 |
| 20260503171556 | 66 | 233 | 1.0 | 6.0 | 0.00 | 0.00 | 0.00 | 46 | 1021.6 |
| 20260503171100 | 66 | 225 | 1.0 | 7.0 | 0.00 | 0.00 | 0.00 | 45 | 1021.7 |
| 20260503170602 | 66 | 221 | 1.0 | 7.0 | 0.00 | 0.00 | 0.00 | 48 | 1021.6 |
| 20260503150948 | 58 | 308 | 0.0 | 4.0 | 0.00 | 0.00 | 0.00 | 64 | 1022.6 |
| 20260503150435 | 57 | 315 | 0.0 | 3.0 | 0.00 | 0.00 | 0.00 | 66 | 1022.6 |